,,,PA_Meas_PMT16A,,PR_Meas_QMR101_102,,RH_Meas_QMH101,,SR_Meas_QMS101,,TA_Meas_QMH101,,GenWind,,GenWind,
date,time,status,PA,status,PR,status,RH,status,SR,status,TA,status,DirAvg,status,SpdAvg,
2008-05-19, 00:00:04,VALID,1006.17,VALID,0,VALID,93.7208,VALID,0,VALID,24.4646,VALID,53,VALID,0.430469,
2008-05-19, 00:01:04,VALID,1006.17,VALID,0,VALID,93.5835,VALID,0,VALID,24.4451,VALID,53,VALID,0.355469,
2008-05-19, 00:02:04,VALID,1006.16,VALID,0,VALID,93.5377,VALID,0,VALID,24.4665,VALID,53,VALID,0.0550781,
2008-05-19, 00:03:04,VALID,1006.16,VALID,0,VALID,93.4004,VALID,0,VALID,24.4257,VALID,53,VALID,0.0113281,
2008-05-19, 00:04:04,VALID,1006.17,VALID,0,VALID,93.2631,VALID,0,VALID,24.3867,VALID,53,VALID,0.251953,
2008-05-19, 00:05:04,VALID,1006.15,VALID,0,VALID,93.3317,VALID,0,VALID,24.3478,VALID,53,VALID,0.370313,
2008-05-19, 00:06:04,VALID,1006.13,VALID,0,VALID,93.3394,VALID,0,VALID,24.3478,VALID,53,VALID,0.0960938,
2008-05-19, 00:07:04,VALID,1006.08,VALID,0,VALID,93.4843,VALID,0,VALID,24.3478,VALID,53,VALID,0.239453,
2008-05-19, 00:08:04,VALID,1006.06,VALID,0,VALID,93.5148,VALID,0,VALID,24.3283,VALID,53,VALID,0.0644531,
2008-05-19, 00:09:04,VALID,1006.07,VALID,0,VALID,93.5987,VALID,0,VALID,24.3673,VALID,53,VALID,0.251953,
2008-05-19, 00:10:04,VALID,1006.04,VALID,0,VALID,93.7513,VALID,0,VALID,24.3478,VALID,53,VALID,0.0105469,
2008-05-19, 00:11:04,VALID,1006.04,VALID,0,VALID,93.7055,VALID,0,VALID,24.3867,VALID,53,VALID,0,
2008-05-19, 00:12:04,VALID,1006.05,VALID,0,VALID,93.7513,VALID,0,VALID,24.3867,VALID,53,VALID,0,
2008-05-19, 00:13:04,VALID,1006.04,VALID,0,VALID,93.8352,VALID,0,VALID,24.4062,VALID,53,VALID,0,
2008-05-19, 00:14:04,VALID,1006.08,VALID,0,VALID,93.7513,VALID,0,VALID,24.4257,VALID,53,VALID,0.184766,
2008-05-19, 00:15:04,VALID,1006.03,VALID,0,VALID,93.7666,VALID,0,VALID,24.4257,VALID,53,VALID,0.028125,
2008-05-19, 00:16:04,VALID,1006.04,VALID,0,VALID,93.6674,VALID,0,VALID,24.4451,VALID,53,VALID,0.246875,
2008-05-19, 00:17:04,VALID,1006.04,VALID,0,VALID,93.675,VALID,0,VALID,24.4257,VALID,53,VALID,0.0117188,
2008-05-19, 00:18:04,VALID,1006.01,VALID,0,VALID,93.6674,VALID,0,VALID,24.447,VALID,53,VALID,0.182812,
2008-05-19, 00:19:04,VALID,1006.01,VALID,0,VALID,93.6826,VALID,0,VALID,24.4257,VALID,53,VALID,0,
2008-05-19, 00:20:04,VALID,1005.98,VALID,0,VALID,93.5606,VALID,0,VALID,24.4257,VALID,53,VALID,0,
2008-05-19, 00:21:04,VALID,1005.99,VALID,0,VALID,93.5987,VALID,0,VALID,24.4275,VALID,53,VALID,0,
2008-05-19, 00:22:04,VALID,1005.97,VALID,0,VALID,93.553,VALID,0,VALID,24.4275,VALID,53,VALID,0,
2008-05-19, 00:23:04,VALID,1005.98,VALID,0,VALID,93.4919,VALID,0,VALID,24.3867,VALID,53,VALID,0,
2008-05-19, 00:24:04,VALID,1005.95,VALID,0,VALID,93.5301,VALID,0,VALID,24.3673,VALID,53,VALID,0,
2008-05-19, 00:25:04,VALID,1005.94,VALID,0,VALID,93.6064,VALID,0,VALID,24.3673,VALID,53,VALID,0,
2008-05-19, 00:26:04,VALID,1005.91,VALID,0,VALID,93.6445,VALID,0,VALID,24.3496,VALID,53,VALID,0,
2008-05-19, 00:27:04,VALID,1005.9,VALID,0,VALID,93.6979,VALID,0,VALID,24.3283,VALID,53,VALID,0,
2008-05-19, 00:28:04,VALID,1005.88,VALID,0,VALID,93.8276,VALID,0,VALID,24.3283,VALID,53,VALID,0,
2008-05-19, 00:29:04,VALID,1005.85,VALID,0,VALID,93.7132,VALID,0,VALID,24.3088,VALID,53,VALID,0.0792969,
2008-05-19, 00:30:04,VALID,1005.86,VALID,0,VALID,93.7284,VALID,0,VALID,24.2894,VALID,53,VALID,0,
2008-05-19, 00:31:04,VALID,1005.81,VALID,0,VALID,93.7284,VALID,0,VALID,24.2912,VALID,53,VALID,0,
2008-05-19, 00:32:04,VALID,1005.85,VALID,0,VALID,93.7437,VALID,0,VALID,24.231,VALID,53,VALID,0,
2008-05-19, 00:33:04,VALID,1005.83,VALID,0,VALID,93.8352,VALID,0,VALID,24.2097,VALID,53,VALID,0,
2008-05-19, 00:34:04,VALID,1005.83,VALID,0,VALID,93.8505,VALID,0,VALID,24.231,VALID,53,VALID,0,
2008-05-19, 00:35:04,VALID,1005.84,VALID,0,VALID,93.9954,VALID,0,VALID,24.2115,VALID,53,VALID,0,
2008-05-19, 00:36:04,VALID,1005.84,VALID,0,VALID,94.0488,VALID,0,VALID,24.192,VALID,53,VALID,0,
2008-05-19, 00:37:04,VALID,1005.81,VALID,0,VALID,94.1328,VALID,0,VALID,24.2115,VALID,53,VALID,0,
2008-05-19, 00:38:04,VALID,1005.8,VALID,0,VALID,94.2014,VALID,0,VALID,24.192,VALID,53,VALID,0,
2008-05-19, 00:39:04,VALID,1005.8,VALID,0,VALID,94.1938,VALID,0,VALID,24.1726,VALID,53,VALID,0,
2008-05-19, 00:40:04,VALID,1005.78,VALID,0,VALID,94.2472,VALID,0,VALID,24.1531,VALID,53,VALID,0,
2008-05-19, 00:41:04,VALID,1005.74,VALID,0,VALID,94.2777,VALID,0,VALID,24.1531,VALID,53,VALID,0.190625,
2008-05-19, 00:42:04,VALID,1005.77,VALID,0,VALID,94.1785,VALID,0,VALID,24.1142,VALID,53,VALID,0,
2008-05-19, 00:43:04,VALID,1005.75,VALID,0,VALID,94.1556,VALID,0,VALID,24.0947,VALID,53,VALID,0.187109,
2008-05-19, 00:44:04,VALID,1005.74,VALID,0,VALID,94.1709,VALID,0,VALID,24.0363,VALID,53,VALID,0.118359,
2008-05-19, 00:45:04,VALID,1005.71,VALID,0,VALID,94.1328,VALID,0,VALID,23.9955,VALID,53,VALID,0.428125,
2008-05-19, 00:46:04,VALID,1005.69,VALID,0,VALID,94.3387,VALID,0,VALID,24.0381,VALID,53,VALID,0.291797,
2008-05-19, 00:47:04,VALID,1005.68,VALID,0,VALID,94.4532,VALID,0,VALID,24.0168,VALID,53,VALID,0.366406,
2008-05-19, 00:48:04,VALID,1005.61,VALID,0,VALID,94.6286,VALID,0,VALID,24.0363,VALID,68,VALID,0.436328,
2008-05-19, 00:49:04,VALID,1005.61,VALID,0,VALID,94.7049,VALID,0,VALID,24.0752,VALID,72,VALID,0.571484,
2008-05-19, 00:50:04,VALID,1005.6,VALID,0,VALID,94.6897,VALID,0,VALID,24.0752,VALID,78,VALID,0.542969,
2008-05-19, 00:51:04,VALID,1005.58,VALID,0,VALID,94.8117,VALID,0,VALID,24.0947,VALID,78,VALID,0.394922,
2008-05-19, 00:52:04,VALID,1005.6,VALID,0,VALID,94.766,VALID,0,VALID,24.1336,VALID,77,VALID,0.331641,
2008-05-19, 00:53:04,VALID,1005.55,VALID,0,VALID,94.5295,VALID,0,VALID,24.0752,VALID,58,VALID,0.43125,
2008-05-19, 00:54:04,VALID,1005.55,VALID,0,VALID,94.4608,VALID,0,VALID,24.0557,VALID,36,VALID,0.726953,
2008-05-19, 00:55:04,VALID,1005.51,VALID,0,VALID,94.415,VALID,0,VALID,24.0168,VALID,33,VALID,0.644531,
2008-05-19, 00:56:04,VALID,1005.46,VALID,0,VALID,94.4379,VALID,0,VALID,23.9779,VALID,33,VALID,0.560156,
2008-05-19, 00:57:04,VALID,1005.46,VALID,0,VALID,94.3921,VALID,0,VALID,23.9797,VALID,33,VALID,0.541797,
2008-05-19, 00:58:04,VALID,1005.43,VALID,0,VALID,94.4074,VALID,0,VALID,23.9389,VALID,33,VALID,0.514063,
2008-05-19, 00:59:04,VALID,1005.43,VALID,0,VALID,94.5218,VALID,0,VALID,23.9195,VALID,33,VALID,0.362109,
2008-05-19, 01:00:04,VALID,1005.41,VALID,0,VALID,94.3921,VALID,0,VALID,23.8805,VALID,33,VALID,0.189453,
2008-05-19, 01:01:04,VALID,1005.45,VALID,0,VALID,94.4455,VALID,0,VALID,23.8203,VALID,49,VALID,0.408594,
2008-05-19, 01:02:04,VALID,1005.46,VALID,0,VALID,94.5981,VALID,0,VALID,23.8611,VALID,68,VALID,0.275781,
2008-05-19, 01:03:04,VALID,1005.44,VALID,0,VALID,94.6744,VALID,0,VALID,23.8805,VALID,68,VALID,0.299219,
2008-05-19, 01:04:04,VALID,1005.47,VALID,0,VALID,94.7507,VALID,0,VALID,23.8805,VALID,68,VALID,0.267188,
2008-05-19, 01:05:04,VALID,1005.47,VALID,0,VALID,94.8117,VALID,0,VALID,23.8805,VALID,68,VALID,0.386328,
2008-05-19, 01:06:04,VALID,1005.47,VALID,0,VALID,94.888,VALID,0,VALID,23.9195,VALID,68,VALID,0.221484,
2008-05-19, 01:07:04,VALID,1005.46,VALID,0,VALID,94.8956,VALID,0,VALID,23.9389,VALID,68,VALID,0.3,
2008-05-19, 01:08:04,VALID,1005.46,VALID,0,VALID,94.8499,VALID,0,VALID,23.9195,VALID,68,VALID,0.316797,
2008-05-19, 01:09:04,VALID,1005.46,VALID,0,VALID,94.8804,VALID,0,VALID,23.8982,VALID,68,VALID,0.348047,
2008-05-19, 01:10:04,VALID,1005.47,VALID,0,VALID,94.8804,VALID,0,VALID,23.9195,VALID,68,VALID,0.335938,
2008-05-19, 01:11:04,VALID,1005.49,VALID,0,VALID,94.9262,VALID,0,VALID,23.8982,VALID,67,VALID,0.431641,
2008-05-19, 01:12:04,VALID,1005.46,VALID,0,VALID,94.9796,VALID,0,VALID,23.9195,VALID,67,VALID,0.444141,
2008-05-19, 01:13:04,VALID,1005.5,VALID,0,VALID,94.9643,VALID,0,VALID,23.9195,VALID,61,VALID,0.548437,
2008-05-19, 01:14:04,VALID,1005.45,VALID,0,VALID,95.1245,VALID,0,VALID,23.9584,VALID,57,VALID,0.240625,
2008-05-19, 01:15:04,VALID,1005.48,VALID,0,VALID,95.3152,VALID,0,VALID,24.077,VALID,50,VALID,0.414844,
2008-05-19, 01:16:04,VALID,1005.47,VALID,0,VALID,95.1245,VALID,0,VALID,24.0557,VALID,50,VALID,0.469141,
2008-05-19, 01:17:04,VALID,1005.46,VALID,0,VALID,95.0024,VALID,0,VALID,24.0557,VALID,50,VALID,0.179297,
2008-05-19, 01:18:04,VALID,1005.47,VALID,0,VALID,95.0101,VALID,0,VALID,24.0557,VALID,50,VALID,0.351563,
2008-05-19, 01:19:04,VALID,1005.45,VALID,0,VALID,94.8956,VALID,0,VALID,24.015,VALID,50,VALID,0.251172,
2008-05-19, 01:20:04,VALID,1005.46,VALID,0,VALID,94.9185,VALID,0,VALID,24.0168,VALID,50,VALID,0.274609,
2008-05-19, 01:21:04,VALID,1005.44,VALID,0,VALID,94.9643,VALID,0,VALID,24.0363,VALID,50,VALID,0.09375,
2008-05-19, 01:22:04,VALID,1005.46,VALID,0,VALID,94.9262,VALID,0,VALID,24.0168,VALID,50,VALID,0.264844,
2008-05-19, 01:23:04,VALID,1005.47,VALID,0,VALID,94.8956,VALID,0,VALID,23.9955,VALID,50,VALID,0.387109,
2008-05-19, 01:24:04,VALID,1005.45,VALID,0,VALID,94.8499,VALID,0,VALID,23.9973,VALID,50,VALID,0.31875,
2008-05-19, 01:25:04,VALID,1005.44,VALID,0,VALID,94.7354,VALID,0,VALID,23.9584,VALID,50,VALID,0.407813,
2008-05-19, 01:26:04,VALID,1005.39,VALID,0,VALID,94.5752,VALID,0,VALID,23.9195,VALID,50,VALID,0.507031,
2008-05-19, 01:27:04,VALID,1005.37,VALID,0,VALID,94.5295,VALID,0,VALID,23.8611,VALID,50,VALID,0.459375,
2008-05-19, 01:28:04,VALID,1005.34,VALID,0,VALID,94.4837,VALID,0,VALID,23.8221,VALID,48,VALID,0.541016,
2008-05-19, 01:29:04,VALID,1005.32,VALID,0,VALID,94.4608,VALID,0,VALID,23.7832,VALID,38,VALID,0.524219,
2008-05-19, 01:30:04,VALID,1005.31,VALID,0,VALID,94.5142,VALID,0,VALID,23.7637,VALID,28,VALID,0.649609,
2008-05-19, 01:31:04,VALID,1005.32,VALID,0,VALID,94.5142,VALID,0,VALID,23.7248,VALID,26,VALID,0.640234,
2008-05-19, 01:32:04,VALID,1005.31,VALID,0,VALID,94.621,VALID,0,VALID,23.7053,VALID,25,VALID,0.521875,
2008-05-19, 01:33:04,VALID,1005.34,VALID,0,VALID,94.9185,VALID,0,VALID,23.7248,VALID,20,VALID,0.568359,
2008-05-19, 01:34:04,VALID,1005.35,VALID,0,VALID,94.9948,VALID,0,VALID,23.7637,VALID,20,VALID,0.474609,
2008-05-19, 01:35:04,VALID,1005.33,VALID,0,VALID,95.0253,VALID,0,VALID,23.785,VALID,20,VALID,0.552344,
2008-05-19, 01:36:04,VALID,1005.36,VALID,0,VALID,95.0406,VALID,0,VALID,23.7637,VALID,20,VALID,0.402344,
2008-05-19, 01:37:04,VALID,1005.37,VALID,0,VALID,95.0024,VALID,0,VALID,23.7637,VALID,20,VALID,0.364844,
2008-05-19, 01:38:04,VALID,1005.36,VALID,0,VALID,94.9719,VALID,0,VALID,23.7637,VALID,20,VALID,0.487891,
2008-05-19, 01:39:04,VALID,1005.34,VALID,0,VALID,94.9872,VALID,0,VALID,23.7443,VALID,20,VALID,0.494531,
2008-05-19, 01:40:04,VALID,1005.34,VALID,0,VALID,94.9796,VALID,0,VALID,23.7461,VALID,20,VALID,0.535156,
2008-05-19, 01:41:04,VALID,1005.32,VALID,0,VALID,94.9719,VALID,0,VALID,23.7053,VALID,20,VALID,0.505859,
2008-05-19, 01:42:04,VALID,1005.33,VALID,0,VALID,95.0101,VALID,0,VALID,23.7053,VALID,20,VALID,0.512891,
2008-05-19, 01:43:04,VALID,1005.29,VALID,0,VALID,95.033,VALID,0,VALID,23.7053,VALID,20,VALID,0.365234,
2008-05-19, 01:44:04,VALID,1005.31,VALID,0,VALID,95.0558,VALID,0,VALID,23.6859,VALID,20,VALID,0.378516,
2008-05-19, 01:45:04,VALID,1005.29,VALID,0,VALID,95.1169,VALID,0,VALID,23.6841,VALID,20,VALID,0.353906,
2008-05-19, 01:46:04,VALID,1005.31,VALID,0,VALID,95.2084,VALID,0,VALID,23.7053,VALID,20,VALID,0.289063,
2008-05-19, 01:47:04,VALID,1005.29,VALID,0,VALID,95.3686,VALID,0,VALID,23.7248,VALID,20,VALID,0.377734,
2008-05-19, 01:48:04,VALID,1005.28,VALID,0,VALID,95.5136,VALID,0,VALID,23.7832,VALID,20,VALID,0.344141,
2008-05-19, 01:49:04,VALID,1005.3,VALID,0,VALID,95.6051,VALID,0,VALID,23.8221,VALID,20,VALID,0.322266,
2008-05-19, 01:50:04,VALID,1005.27,VALID,0,VALID,95.5365,VALID,0,VALID,23.8611,VALID,20,VALID,0.215625,
2008-05-19, 01:51:04,VALID,1005.24,VALID,0,VALID,95.5441,VALID,0,VALID,23.9,VALID,20,VALID,0.220703,
2008-05-19, 01:52:04,VALID,1005.21,VALID,0,VALID,95.4678,VALID,0,VALID,23.9,VALID,20,VALID,0.334766,
2008-05-19, 01:53:04,VALID,1005.21,VALID,0,VALID,95.3076,VALID,0,VALID,23.9,VALID,20,VALID,0.437109,
2008-05-19, 01:54:04,VALID,1005.2,VALID,0,VALID,95.2771,VALID,0,VALID,23.8805,VALID,20,VALID,0.433203,
2008-05-19, 01:55:04,VALID,1005.16,VALID,0,VALID,95.3076,VALID,0,VALID,23.8805,VALID,20,VALID,0.498437,
2008-05-19, 01:56:04,VALID,1005.15,VALID,0,VALID,95.1779,VALID,0,VALID,23.8416,VALID,20,VALID,0.366406,
2008-05-19, 01:57:04,VALID,1005.16,VALID,0,VALID,95.1093,VALID,0,VALID,23.8221,VALID,20,VALID,0.461719,
2008-05-19, 01:58:04,VALID,1005.16,VALID,0,VALID,95.0482,VALID,0,VALID,23.7637,VALID,20,VALID,0.551953,
2008-05-19, 01:59:04,VALID,1005.15,VALID,0,VALID,95.0024,VALID,0,VALID,23.7248,VALID,20,VALID,0.615625,
2008-05-19, 02:00:04,VALID,1005.14,VALID,0,VALID,95.0253,VALID,0,VALID,23.6646,VALID,20,VALID,0.530469,
2008-05-19, 02:01:04,VALID,1005.18,VALID,0,VALID,95.0864,VALID,0,VALID,23.6859,VALID,20,VALID,0.525,
2008-05-19, 02:02:04,VALID,1005.18,VALID,0,VALID,95.155,VALID,0,VALID,23.6664,VALID,20,VALID,0.548047,
2008-05-19, 02:03:04,VALID,1005.14,VALID,0,VALID,95.1932,VALID,0,VALID,23.6646,VALID,20,VALID,0.463281,
2008-05-19, 02:04:04,VALID,1005.14,VALID,0,VALID,95.2542,VALID,0,VALID,23.6664,VALID,20,VALID,0.45625,
2008-05-19, 02:05:04,VALID,1005.16,VALID,0,VALID,95.3076,VALID,0,VALID,23.6859,VALID,20,VALID,0.385156,
2008-05-19, 02:06:04,VALID,1005.11,VALID,0,VALID,95.2923,VALID,0,VALID,23.6859,VALID,20,VALID,0.198828,
2008-05-19, 02:07:04,VALID,1005.14,VALID,0,VALID,95.3076,VALID,0,VALID,23.6859,VALID,20,VALID,0.345313,
2008-05-19, 02:08:04,VALID,1005.12,VALID,0,VALID,95.3152,VALID,0,VALID,23.6646,VALID,20,VALID,0.442187,
2008-05-19, 02:09:04,VALID,1005.14,VALID,0,VALID,95.2618,VALID,0,VALID,23.6664,VALID,20,VALID,0.569531,
2008-05-19, 02:10:04,VALID,1005.09,VALID,0,VALID,95.2847,VALID,0,VALID,23.6664,VALID,20,VALID,0.633984,
2008-05-19, 02:11:04,VALID,1005.09,VALID,0,VALID,95.1932,VALID,0,VALID,23.6487,VALID,20,VALID,0.55,
2008-05-19, 02:12:04,VALID,1005.12,VALID,0,VALID,95.2237,VALID,0,VALID,23.608,VALID,20,VALID,0.543359,
2008-05-19, 02:13:04,VALID,1005.1,VALID,0,VALID,95.2618,VALID,0.100563,VALID,23.608,VALID,20,VALID,0.526172,
2008-05-19, 02:14:04,VALID,1005.11,VALID,0,VALID,95.3152,VALID,0,VALID,23.5868,VALID,20,VALID,0.508203,
2008-05-19, 02:15:04,VALID,1005.08,VALID,0,VALID,95.361,VALID,0,VALID,23.608,VALID,20,VALID,0.385156,
2008-05-19, 02:16:04,VALID,1005.06,VALID,0,VALID,95.361,VALID,0,VALID,23.5868,VALID,20,VALID,0.377734,
2008-05-19, 02:17:04,VALID,1005.05,VALID,0,VALID,95.3839,VALID,0,VALID,23.608,VALID,20,VALID,0.370703,
2008-05-19, 02:18:04,VALID,1005.02,VALID,0,VALID,95.3686,VALID,0,VALID,23.5673,VALID,20,VALID,0.430078,
2008-05-19, 02:19:04,VALID,1005.03,VALID,0,VALID,95.3305,VALID,0,VALID,23.5885,VALID,20,VALID,0.316406,
2008-05-19, 02:20:04,VALID,1005.01,VALID,0,VALID,95.3839,VALID,0,VALID,23.5885,VALID,20,VALID,0.288281,
2008-05-19, 02:21:04,VALID,1005.03,VALID,0,VALID,95.4602,VALID,0,VALID,23.608,VALID,20,VALID,0.267969,
2008-05-19, 02:22:04,VALID,1005.03,VALID,0,VALID,95.4373,VALID,0,VALID,23.5868,VALID,20,VALID,0.163281,
2008-05-19, 02:23:04,VALID,1005.04,VALID,0,VALID,95.4907,VALID,0,VALID,23.608,VALID,20,VALID,0.275,
2008-05-19, 02:24:04,VALID,1005.05,VALID,0,VALID,95.4831,VALID,0,VALID,23.6275,VALID,20,VALID,0.35625,
2008-05-19, 02:25:04,VALID,1005.05,VALID,0,VALID,95.5365,VALID,0,VALID,23.6469,VALID,20,VALID,0.49375,
2008-05-19, 02:26:04,VALID,1005.08,VALID,0,VALID,95.5136,VALID,0,VALID,23.6469,VALID,20,VALID,0.408984,
2008-05-19, 02:27:04,VALID,1005.09,VALID,0,VALID,95.4068,VALID,0,VALID,23.6275,VALID,20,VALID,0.381641,
2008-05-19, 02:28:04,VALID,1005.09,VALID,0,VALID,95.3457,VALID,0,VALID,23.5885,VALID,20,VALID,0.430469,
2008-05-19, 02:29:04,VALID,1005.09,VALID,0,VALID,95.3152,VALID,0,VALID,23.5691,VALID,19,VALID,0.591797,
2008-05-19, 02:30:04,VALID,1005.12,VALID,0,VALID,95.3152,VALID,0.100563,VALID,23.5284,VALID,18,VALID,0.486719,
2008-05-19, 02:31:04,VALID,1005.09,VALID,0,VALID,95.4068,VALID,0,VALID,23.5496,VALID,18,VALID,0.45,
2008-05-19, 02:32:04,VALID,1005.09,VALID,0,VALID,95.4449,VALID,0,VALID,23.5691,VALID,18,VALID,0.409375,
2008-05-19, 02:33:04,VALID,1005.11,VALID,0,VALID,95.3839,VALID,0,VALID,23.5496,VALID,18,VALID,0.36875,
2008-05-19, 02:34:04,VALID,1005.1,VALID,0,VALID,95.3686,VALID,0,VALID,23.5319,VALID,18,VALID,0.351172,
2008-05-19, 02:35:04,VALID,1005.09,VALID,0,VALID,95.4373,VALID,0,VALID,23.5302,VALID,18,VALID,0.394531,
2008-05-19, 02:36:04,VALID,1005.11,VALID,0,VALID,95.4983,VALID,0,VALID,23.5496,VALID,18,VALID,0.329688,
2008-05-19, 02:37:04,VALID,1005.09,VALID,0,VALID,95.4831,VALID,0,VALID,23.5496,VALID,18,VALID,0.334766,
2008-05-19, 02:38:04,VALID,1005.12,VALID,0,VALID,95.4526,VALID,0,VALID,23.5302,VALID,18,VALID,0.312109,
2008-05-19, 02:39:04,VALID,1005.09,VALID,0,VALID,95.4678,VALID,0.100563,VALID,23.5496,VALID,18,VALID,0.364844,
2008-05-19, 02:40:04,VALID,1005.09,VALID,0,VALID,95.4602,VALID,0,VALID,23.4894,VALID,18,VALID,0.297656,
2008-05-19, 02:41:04,VALID,1005.08,VALID,0,VALID,95.4907,VALID,0,VALID,23.5089,VALID,18,VALID,0.283594,
2008-05-19, 02:42:04,VALID,1005.07,VALID,0,VALID,95.5746,VALID,0,VALID,23.5284,VALID,18,VALID,0.487109,
2008-05-19, 02:43:04,VALID,1005.09,VALID,0,VALID,95.4602,VALID,0,VALID,23.5302,VALID,18,VALID,0.355078,
2008-05-19, 02:44:04,VALID,1005.12,VALID,0,VALID,95.3305,VALID,0,VALID,23.47,VALID,19,VALID,0.225391,
2008-05-19, 02:45:04,VALID,1005.11,VALID,0,VALID,95.4297,VALID,0,VALID,23.4912,VALID,19,VALID,0.139844,
2008-05-19, 02:46:04,VALID,1005.11,VALID,0,VALID,95.4068,VALID,0,VALID,23.47,VALID,19,VALID,0.247656,
2008-05-19, 02:47:04,VALID,1005.1,VALID,0,VALID,95.5136,VALID,0,VALID,23.47,VALID,19,VALID,0.3,
2008-05-19, 02:48:04,VALID,1005.11,VALID,0,VALID,95.7424,VALID,0,VALID,23.5885,VALID,24,VALID,0.329688,
2008-05-19, 02:49:04,VALID,1005.11,VALID,0,VALID,95.8111,VALID,0,VALID,23.6452,VALID,24,VALID,0.275781,
2008-05-19, 02:50:04,VALID,1005.08,VALID,0,VALID,95.8264,VALID,0,VALID,23.7053,VALID,24,VALID,0.2625,
2008-05-19, 02:51:04,VALID,1005.1,VALID,0,VALID,95.8569,VALID,0.100563,VALID,23.7637,VALID,30,VALID,0.214062,
2008-05-19, 02:52:04,VALID,1005.11,VALID,0,VALID,95.8874,VALID,0,VALID,23.8027,VALID,73,VALID,0.423047,
2008-05-19, 02:53:04,VALID,1005.1,VALID,0,VALID,95.9103,VALID,0.100563,VALID,23.8593,VALID,61,VALID,0.167969,
2008-05-19, 02:54:04,VALID,1005.11,VALID,0,VALID,95.8645,VALID,0,VALID,23.8787,VALID,61,VALID,0.182812,
2008-05-19, 02:55:04,VALID,1005.07,VALID,0,VALID,95.8874,VALID,0,VALID,23.9797,VALID,61,VALID,0.249219,
2008-05-19, 02:56:04,VALID,1005.08,VALID,0,VALID,95.834,VALID,0,VALID,23.9779,VALID,46,VALID,0.277734,
2008-05-19, 02:57:04,VALID,1005.07,VALID,0,VALID,95.7424,VALID,0,VALID,23.9371,VALID,46,VALID,0.334766,
2008-05-19, 02:58:04,VALID,1005.06,VALID,0,VALID,95.7501,VALID,0,VALID,23.9779,VALID,18,VALID,0.713281,
2008-05-19, 02:59:04,VALID,1005.06,VALID,0,VALID,95.6585,VALID,0,VALID,23.9566,VALID,19,VALID,0.231641,
2008-05-19, 03:00:04,VALID,1005.06,VALID,0,VALID,95.5594,VALID,0,VALID,23.9389,VALID,22,VALID,0.106641,
2008-05-19, 03:01:04,VALID,1005.02,VALID,0,VALID,95.5288,VALID,0,VALID,23.8982,VALID,22,VALID,0.0886719,
2008-05-19, 03:02:04,VALID,1005.04,VALID,0,VALID,95.6509,VALID,0.100563,VALID,23.9584,VALID,22,VALID,0.228516,
2008-05-19, 03:03:04,VALID,1005,VALID,0,VALID,95.8035,VALID,0,VALID,24.015,VALID,32,VALID,0.35,
2008-05-19, 03:04:04,VALID,1004.99,VALID,0,VALID,95.7806,VALID,0,VALID,24.0734,VALID,61,VALID,0.471094,
2008-05-19, 03:05:04,VALID,1005.01,VALID,0,VALID,95.8798,VALID,0,VALID,24.192,VALID,73,VALID,0.319922,
2008-05-19, 03:06:04,VALID,1005,VALID,0,VALID,95.834,VALID,0,VALID,24.2291,VALID,69,VALID,0.494922,
2008-05-19, 03:07:04,VALID,1004.99,VALID,0,VALID,95.6585,VALID,0,VALID,24.2291,VALID,66,VALID,0.162891,
2008-05-19, 03:08:04,VALID,1004.98,VALID,0,VALID,95.5594,VALID,0,VALID,24.2699,VALID,66,VALID,0.226563,
2008-05-19, 03:09:04,VALID,1004.98,VALID,0,VALID,95.4449,VALID,0,VALID,24.2486,VALID,51,VALID,0.199219,
2008-05-19, 03:10:04,VALID,1004.98,VALID,0,VALID,95.3686,VALID,0,VALID,24.2486,VALID,35,VALID,0.277344,
2008-05-19, 03:11:04,VALID,1004.94,VALID,0,VALID,95.3,VALID,0,VALID,24.2699,VALID,35,VALID,0.253906,
2008-05-19, 03:12:04,VALID,1004.94,VALID,0,VALID,95.3076,VALID,0,VALID,24.2699,VALID,60,VALID,0.392188,
2008-05-19, 03:13:05,VALID,1004.92,VALID,0,VALID,95.3,VALID,0,VALID,24.2699,VALID,62,VALID,0.385938,
2008-05-19, 03:14:05,VALID,1004.92,VALID,0,VALID,95.2771,VALID,0,VALID,24.2894,VALID,62,VALID,0.378516,
2008-05-19, 03:15:05,VALID,1004.9,VALID,0,VALID,95.3229,VALID,0,VALID,24.3283,VALID,61,VALID,0.194922,
2008-05-19, 03:16:05,VALID,1004.91,VALID,0,VALID,95.2771,VALID,0,VALID,24.3283,VALID,61,VALID,0.186719,
2008-05-19, 03:17:05,VALID,1004.91,VALID,0,VALID,95.1779,VALID,0,VALID,24.3459,VALID,41,VALID,0.476953,
2008-05-19, 03:18:05,VALID,1004.94,VALID,0,VALID,95.1703,VALID,0,VALID,24.3459,VALID,32,VALID,0.0503906,
2008-05-19, 03:19:05,VALID,1004.94,VALID,0,VALID,95.1627,VALID,0,VALID,24.3673,VALID,32,VALID,0.372266,
2008-05-19, 03:20:05,VALID,1004.95,VALID,0,VALID,95.1016,VALID,0,VALID,24.3654,VALID,33,VALID,0.551172,
2008-05-19, 03:21:05,VALID,1004.96,VALID,0,VALID,95.0406,VALID,0,VALID,24.3867,VALID,32,VALID,0.309766,
2008-05-19, 03:22:05,VALID,1004.97,VALID,0,VALID,94.9719,VALID,0,VALID,24.3867,VALID,32,VALID,0,
2008-05-19, 03:23:05,VALID,1005,VALID,0,VALID,94.8346,VALID,0.100563,VALID,24.3459,VALID,32,VALID,0.253125,
2008-05-19, 03:24:05,VALID,1005.02,VALID,0,VALID,94.8117,VALID,0,VALID,24.3283,VALID,32,VALID,0.257422,
2008-05-19, 03:25:05,VALID,1005.03,VALID,0,VALID,94.7736,VALID,0,VALID,24.3283,VALID,33,VALID,0.35625,
2008-05-19, 03:26:05,VALID,1005.02,VALID,0,VALID,94.7507,VALID,0,VALID,24.3283,VALID,32,VALID,0.0492188,
2008-05-19, 03:27:05,VALID,1005.02,VALID,0,VALID,94.7431,VALID,0,VALID,24.3088,VALID,32,VALID,0.230859,
2008-05-19, 03:28:05,VALID,1005,VALID,0,VALID,94.7125,VALID,0,VALID,24.2894,VALID,32,VALID,0,
2008-05-19, 03:29:05,VALID,1005.01,VALID,0,VALID,94.7278,VALID,0,VALID,24.2894,VALID,32,VALID,0.0914062,
2008-05-19, 03:30:05,VALID,1005.01,VALID,0,VALID,94.7354,VALID,0,VALID,24.2894,VALID,32,VALID,0.271484,
2008-05-19, 03:31:05,VALID,1004.98,VALID,0,VALID,94.7278,VALID,0,VALID,24.2894,VALID,32,VALID,0,
2008-05-19, 03:32:05,VALID,1004.98,VALID,0,VALID,94.7583,VALID,0,VALID,24.2894,VALID,54,VALID,0.310547,
2008-05-19, 03:33:05,VALID,1005.01,VALID,0,VALID,94.8194,VALID,0,VALID,24.2894,VALID,58,VALID,0.108594,
2008-05-19, 03:34:05,VALID,1005,VALID,0,VALID,94.8804,VALID,0,VALID,24.3107,VALID,66,VALID,0.248437,
2008-05-19, 03:35:05,VALID,1004.99,VALID,0,VALID,94.8728,VALID,0,VALID,24.3283,VALID,66,VALID,0.265234,
2008-05-19, 03:36:05,VALID,1004.98,VALID,0,VALID,94.9185,VALID,0,VALID,24.3478,VALID,67,VALID,0.452734,
2008-05-19, 03:37:05,VALID,1004.98,VALID,0,VALID,94.8804,VALID,0,VALID,24.3265,VALID,67,VALID,0.301172,
2008-05-19, 03:38:05,VALID,1005.01,VALID,0,VALID,94.827,VALID,0,VALID,24.3478,VALID,64,VALID,0.148047,
2008-05-19, 03:39:05,VALID,1005.03,VALID,0,VALID,94.7888,VALID,0,VALID,24.3478,VALID,58,VALID,0.155469,
2008-05-19, 03:40:05,VALID,1005.05,VALID,0,VALID,94.6897,VALID,0,VALID,24.2875,VALID,58,VALID,0.243359,
2008-05-19, 03:41:05,VALID,1005.1,VALID,0,VALID,94.6591,VALID,0,VALID,24.2894,VALID,58,VALID,0.438672,
2008-05-19, 03:42:05,VALID,1005.08,VALID,0,VALID,94.56,VALID,0,VALID,24.2717,VALID,58,VALID,0.239844,
2008-05-19, 03:43:05,VALID,1005.11,VALID,0,VALID,94.5447,VALID,0,VALID,24.2328,VALID,58,VALID,0,
2008-05-19, 03:44:05,VALID,1005.12,VALID,0,VALID,94.5523,VALID,0,VALID,24.2133,VALID,58,VALID,0,
2008-05-19, 03:45:05,VALID,1005.12,VALID,0,VALID,94.682,VALID,0,VALID,24.192,VALID,58,VALID,0.334375,
2008-05-19, 03:46:05,VALID,1005.14,VALID,0,VALID,94.7583,VALID,0,VALID,24.192,VALID,58,VALID,0.151953,
2008-05-19, 03:47:05,VALID,1005.13,VALID,0,VALID,94.7125,VALID,0,VALID,24.1726,VALID,58,VALID,0.0046875,
2008-05-19, 03:48:05,VALID,1005.13,VALID,0,VALID,94.7736,VALID,0,VALID,24.1939,VALID,58,VALID,0.341797,